Location: Cz?stochówka
(50.8142°N, 19.0915°E)
Time: 17:12:00
(UTC+00:00)

Cosmos 540 Rocket - Visible Passes

Search period start: 11 April 2026 00:00
Search period end: 21 April 2026 00:00
Orbit: 734 x 748 km, 74.1° (Epoch: 11 April)

Date Brightness Start Highest point End Pass type
(mag) Time Alt. Az. Time Alt. Az. Time Alt. Az.
11 Apr 5.5 02:31:07 10° SSE 02:35:21 27° E 02:39:37 10° NE visible
12 Apr 6.1 01:47:53 10° SE 01:50:36 15° E 01:53:21 10° ENE visible
13 Apr 4.4 02:41:19 10° S 02:46:13 49° ESE 02:51:11 10° NNE visible
14 Apr 5.3 01:57:04 10° SSE 02:01:18 27° E 02:05:34 10° NE visible
15 Apr 6.0 01:13:51 10° SE 01:16:34 15° E 01:19:17 10° ENE visible
15 Apr 3.5 02:52:07 10° SSW 02:57:14 89° SE 03:02:26 10° NNE visible
16 Apr 4.3 02:07:15 10° S 02:12:10 49° ESE 02:17:08 10° NNE visible
17 Apr 5.2 01:23:01 10° SSE 01:27:15 27° E 01:31:31 10° NE visible
17 Apr 3.8 03:03:26 10° SW 03:08:27 52° WNW 03:13:29 10° NNE visible
18 Apr 5.9 00:39:48 10° SE 00:42:31 14° E 00:45:14 10° ENE visible
18 Apr 3.5 02:18:35 13° SSW 02:23:11 89° ESE 02:28:23 10° NNE visible
19 Apr 4.2 01:34:29 18° S 01:38:06 49° ESE 01:43:04 10° NNE visible
20 Apr 5.1 00:50:20 16° SE 00:53:12 27° E 00:57:28 10° NE visible
20 Apr 3.8 02:30:02 14° SW 02:34:23 52° WNW 02:39:27 10° NNE visible
